Date,TemperatureHighF,TemperatureAvgF,TemperatureLowF,DewpointHighF,DewpointAvgF,DewpointLowF,HumidityHigh,HumidityAvg,HumidityLow,PressureMaxIn,PressureMinIn,WindSpeedMaxMPH,WindSpeedAvgMPH,GustSpeedMaxMPH,PrecipitationSumIn
2014-1-1,51.6,36.1,23.8,27.0,22.6,18.0,81,60,38,30.67,30.37,13,3,18,0.00
2014-1-2,33.9,29.6,27.0,28.0,25.8,23.0,94,86,65,30.36,29.92,10,1,14,0.00
2014-1-3,30.3,17.4,9.0,24.0,4.7,1.0,80,58,43,30.77,29.98,22,6,33,0.00
2014-1-4,36.7,23.4,7.6,14.0,9.6,4.0,86,58,39,30.77,30.53,19,7,27,0.00
2014-1-5,40.5,29.3,20.1,40.0,25.8,14.0,97,87,62,30.54,29.93,4,1,8,0.39
2014-1-6,50.5,30.5,4.5,47.0,17.7,-13.0,97,60,39,30.38,29.75,26,12,31,0.06
2014-1-7,18.9,9.2,1.4,2.0,-9.1,-15.0,69,44,30,30.75,30.38,15,5,20,0.00
2014-1-8,33.2,19.7,8.4,14.0,5.5,-3.0,77,56,38,30.88,30.75,13,2,18,0.00
2014-1-9,37.3,26.9,19.1,24.0,16.9,12.0,84,67,48,30.91,30.77,5,0,7,0.00
2014-1-10,40.2,35.0,30.3,38.0,32.1,23.0,96,89,71,30.77,30.38,6,1,7,0.28
2014-1-11,55.8,45.9,35.3,53.0,42.5,34.0,98,89,54,30.37,29.69,23,4,29,0.34
2014-1-12,50.5,42.3,33.7,31.0,28.3,25.0,77,57,40,30.35,29.88,18,-4,28,0.00
2014-1-13,57.5,41.2,25.5,36.0,30.9,24.0,93,69,41,30.34,30.10,18,5,24,0.00
2014-1-14,49.4,43.3,30.3,45.0,38.5,27.0,95,84,61,30.17,29.95,21,4,25,0.17
2014-1-15,48.2,33.8,27.0,37.0,30.0,25.0,96,87,61,30.26,30.13,13,2,20,0.05
2014-1-16,35.8,29.1,19.7,30.0,22.6,17.0,95,78,53,30.31,30.16,7,1,11,0.08
2014-1-17,47.6,35.8,0.0,31.0,23.7,18.0,91,60,39,30.22,30.08,19,-6,25,0.00
2014-1-18,32.4,24.3,19.3,30.0,12.1,6.0,92,60,47,30.26,30.13,20,6,25,0.00
2014-1-19,51.3,33.2,22.6,26.0,21.4,16.0,81,62,44,30.21,30.02,24,-14,27,0.00
2014-1-20,54.7,40.1,30.4,28.0,21.1,-99.9,83,53,29,30.13,29.92,14,-8,22,0.00
2014-1-21,32.5,25.6,15.3,29.0,23.0,9.0,95,90,77,30.20,29.97,16,5,24,0.02
2014-1-22,17.2,10.8,1.2,9.0,-1.9,-7.0,76,58,37,30.39,30.20,11,3,21,0.00
2014-1-23,20.7,9.1,-1.4,11.0,-2.3,-6.0,85,62,38,30.80,30.39,23,6,27,0.00
2014-1-24,19.3,11.0,-1.0,0.0,-4.3,-9.0,72,52,39,30.87,30.34,23,7,28,0.00
2014-1-25,34.0,26.7,19.1,24.0,10.1,0.0,89,51,37,30.34,29.73,28,11,40,0.00
2014-1-26,35.1,23.2,9.4,14.0,6.1,0.0,70,49,34,30.16,29.99,18,4,25,0.00
2014-1-27,46.5,31.4,16.2,33.0,13.8,-5.0,67,49,31,30.46,29.93,19,8,29,0.00
2014-1-28,15.8,12.2,8.0,7.0,-5.5,-11.0,84,46,32,30.70,30.47,16,4,26,0.00
2014-1-29,26.3,14.3,0.0,7.0,0.0,-9.0,87,57,27,30.66,30.52,9,-9,13,0.00
2014-1-30,32.5,17.9,0.0,9.0,3.3,-2.0,80,56,30,30.75,30.45,15,-8,22,0.00
2014-1-31,50.0,34.4,26.5,21.0,13.5,5.0,76,44,24,30.48,30.37,14,2,20,0.00